NOZ1821 LPFR-ENGM

Flight info

Callsign NOZ1821
Flight time N/A
Altitude 34000
Route ELVAR DCT BARDI N873 DELOG DCT DIDIG DCT USODA DCT ERCUT DCT DITAL UN873 BAZOS DCT BELDI DCT VEKIN/N0448F360 DCT ADUTO/N0446F350 DCT VICOT DCT AMADA DCT PIPEX DCT RIPAM
Aircraft B738/M-SDE2E3FGHIRWXY/LB1

Departure

Time 2026-05-04 11:05
Airport Faro - Gago Coutinho International Airport (LPFR)

Arrival

Time N/A
Airport Oslo-Gardermoen International Airport (ENGM)
Time Latitude Longitude Altitude Speed Heading
2026-05-04 10:39 37.01886 -7.96622 19 ft 0 kts 10°
2026-05-04 10:56 37.01845 -7.96630 22 ft 4 kts
2026-05-04 10:56 37.01819 -7.96639 21 ft 4 kts 26°
2026-05-04 10:56 37.01806 -7.96653 19 ft 2 kts 90°
2026-05-04 10:57 37.01807 -7.96684 19 ft 4 kts 99°
2026-05-04 10:57 37.01812 -7.96717 19 ft 4 kts 102°
2026-05-04 10:57 37.01814 -7.96730 20 ft 1 kts 100°
2026-05-04 11:01 37.01712 -7.96530 19 ft 9 kts 192°
2026-05-04 11:02 37.01644 -7.96542 19 ft 10 kts 170°
2026-05-04 11:02 37.01610 -7.96465 21 ft 12 kts 100°
2026-05-04 11:05 37.02426 -8.02965 2406 ft 193 kts 281°
2026-05-04 11:06 37.02655 -8.04690 2850 ft 203 kts 283°
2026-05-04 11:06 37.02929 -8.06491 3117 ft 224 kts 285°
2026-05-04 11:06 37.03624 -8.08270 3500 ft 238 kts 312°
2026-05-04 11:06 37.05025 -8.09512 3918 ft 255 kts 338°
2026-05-04 11:08 37.16758 -8.03384 9081 ft 291 kts 29°
2026-05-04 11:10 37.31338 -7.96384 12454 ft 356 kts 358°
2026-05-04 11:12 37.48045 -7.95612 16518 ft 378 kts 357°
2026-05-04 11:12 37.50688 -7.95474 17103 ft 381 kts 357°
2026-05-04 11:12 37.53349 -7.95335 17701 ft 384 kts 356°
2026-05-04 11:12 37.56035 -7.95195 18285 ft 387 kts 356°
2026-05-04 11:13 37.58736 -7.95048 18778 ft 391 kts 358°
2026-05-04 11:13 37.61459 -7.94414 19215 ft 405 kts 12°
2026-05-04 11:13 37.64135 -7.93246 19730 ft 409 kts 13°
2026-05-04 11:13 37.66828 -7.92025 20190 ft 413 kts 14°
2026-05-04 11:14 37.69543 -7.90789 20667 ft 416 kts 14°
2026-05-04 11:14 37.72268 -7.89555 21201 ft 417 kts 14°
2026-05-04 11:14 37.74976 -7.88340 21647 ft 420 kts 13°
2026-05-04 11:16 37.94786 -7.79582 24527 ft 439 kts 13°
2026-05-04 11:16 37.97670 -7.78305 24975 ft 439 kts 13°
2026-05-04 11:16 38.00566 -7.77022 25303 ft 442 kts 13°
2026-05-04 11:17 38.03482 -7.75730 25594 ft 445 kts 13°
2026-05-04 11:17 38.06419 -7.74429 25907 ft 448 kts 13°
2026-05-04 11:19 38.27350 -7.65113 28005 ft 464 kts 13°
2026-05-04 11:19 38.30402 -7.63750 28284 ft 466 kts 13°
2026-05-04 11:19 38.33472 -7.62378 28570 ft 468 kts 13°
2026-05-04 11:19 38.35510 -7.61466 28747 ft 469 kts 13°
2026-05-04 11:20 38.38600 -7.60083 29016 ft 472 kts 13°
2026-05-04 11:20 38.41707 -7.58691 29229 ft 475 kts 13°
2026-05-04 11:20 38.44841 -7.57287 29408 ft 479 kts 13°
2026-05-04 11:20 38.47993 -7.55871 29688 ft 480 kts 13°
2026-05-04 11:22 38.69903 -7.45991 31932 ft 474 kts 13°
2026-05-04 11:22 38.73016 -7.44583 32216 ft 474 kts 13°
2026-05-04 11:23 38.76128 -7.43174 32453 ft 474 kts 13°
2026-05-04 11:23 38.79240 -7.41765 32706 ft 475 kts 13°
2026-05-04 11:24 38.97843 -7.33309 34064 ft 475 kts 13°
2026-05-04 11:25 39.00955 -7.31891 34074 ft 474 kts 13°
2026-05-04 11:25 39.07160 -7.29054 34062 ft 470 kts 13°
2026-05-04 11:27 39.34142 -7.14318 34060 ft 474 kts 21°